Time,TemperatureF,DewpointF,PressureIn,WindDirection,WindDirectionDegrees,WindSpeedMPH,WindSpeedGustMPH,Humidity,HourlyPrecipIn,Conditions,Clouds,dailyrainin,SoftwareType,DateUTC
2013-03-07 00:01:00,25.0,21.0,-100.00,NE,55,2.0,3.0,83,-99.99,,,-99.99,,2013-03-07 06:01:00,
2013-03-07 00:11:00,25.0,20.0,-100.00,NW,320,1.0,5.0,84,-99.99,,,-99.99,,2013-03-07 06:11:00,
2013-03-07 00:21:00,25.0,20.0,-100.00,NW,320,1.0,5.0,84,-99.99,,,-99.99,,2013-03-07 06:21:00,
2013-03-07 00:32:00,24.0,21.0,-100.00,WNW,300,1.0,2.0,85,-99.99,,,-99.99,,2013-03-07 06:32:00,
2013-03-07 00:42:00,24.0,21.0,-100.00,NW,310,0.0,2.0,87,-99.99,,,-99.99,,2013-03-07 06:42:00,
2013-03-07 00:51:00,24.0,21.0,-100.00,NE,45,1.0,4.0,87,-99.99,,,-99.99,,2013-03-07 06:51:00,
2013-03-07 01:01:00,24.0,21.0,-100.00,NE,45,1.0,4.0,87,-99.99,,,-99.99,,2013-03-07 07:01:00,
2013-03-07 01:11:00,24.0,21.0,-100.00,NW,325,0.0,4.0,87,-99.99,,,-99.99,,2013-03-07 07:11:00,
2013-03-07 01:21:00,24.0,21.0,-100.00,NW,325,0.0,4.0,87,-99.99,,,-99.99,,2013-03-07 07:21:00,
2013-03-07 01:32:00,24.0,21.0,-100.00,WSW,240,0.0,3.0,88,-99.99,,,-99.99,,2013-03-07 07:32:00,
2013-03-07 01:42:00,24.0,21.0,-100.00,WNW,295,1.0,2.0,88,-99.99,,,-99.99,,2013-03-07 07:42:00,
2013-03-07 01:52:00,24.0,21.0,-100.00,WNW,295,1.0,2.0,88,-99.99,,,-99.99,,2013-03-07 07:52:00,
2013-03-07 02:02:00,24.0,21.0,-100.00,WNW,300,0.0,2.0,88,-99.99,,,-99.99,,2013-03-07 08:02:00,
2013-03-07 02:12:00,24.0,21.0,-100.00,SSE,155,1.0,2.0,89,-99.99,,,-99.99,,2013-03-07 08:12:00,
2013-03-07 02:22:00,24.0,21.0,-100.00,SSE,155,1.0,2.0,89,-99.99,,,-99.99,,2013-03-07 08:22:00,
2013-03-07 02:33:00,24.0,21.0,-100.00,NW,315,0.0,1.0,90,-99.99,,,-99.99,,2013-03-07 08:33:00,
2013-03-07 02:43:00,24.0,21.0,-100.00,WNW,285,1.0,3.0,89,-99.99,,,-99.99,,2013-03-07 08:43:00,
2013-03-07 02:53:00,24.0,21.0,-100.00,WNW,285,1.0,3.0,89,-99.99,,,-99.99,,2013-03-07 08:53:00,
2013-03-07 03:03:00,24.0,21.0,-100.00,West,270,1.0,4.0,88,-99.99,,,-99.99,,2013-03-07 09:03:00,
2013-03-07 03:13:00,24.0,21.0,-100.00,WNW,290,2.0,2.0,89,-99.99,,,-99.99,,2013-03-07 09:13:00,
2013-03-07 03:23:00,24.0,21.0,-100.00,WNW,290,2.0,2.0,89,-99.99,,,-99.99,,2013-03-07 09:23:00,
2013-03-07 03:33:00,25.0,22.0,-100.00,WNW,295,1.0,1.0,88,-99.99,,,-99.99,,2013-03-07 09:33:00,
2013-03-07 03:42:00,25.0,22.0,-100.00,WSW,245,1.0,2.0,88,-99.99,,,-99.99,,2013-03-07 09:42:00,
2013-03-07 03:52:00,25.0,22.0,-100.00,WSW,245,1.0,2.0,88,-99.99,,,-99.99,,2013-03-07 09:52:00,
2013-03-07 04:03:00,25.0,22.0,-100.00,West,265,1.0,2.0,88,-99.99,,,-99.99,,2013-03-07 10:03:00,
2013-03-07 04:13:00,25.0,22.0,-100.00,West,265,0.0,4.0,87,-99.99,,,-99.99,,2013-03-07 10:13:00,
2013-03-07 04:23:00,25.0,22.0,-100.00,West,265,0.0,4.0,87,-99.99,,,-99.99,,2013-03-07 10:23:00,
2013-03-07 04:33:00,26.0,22.0,-100.00,NW,315,1.0,1.0,87,-99.99,,,-99.99,,2013-03-07 10:33:00,
2013-03-07 04:42:00,26.0,22.0,-100.00,NW,320,1.0,2.0,87,-99.99,,,-99.99,,2013-03-07 10:42:00,
2013-03-07 04:52:00,26.0,22.0,-100.00,NW,320,1.0,2.0,87,-99.99,,,-99.99,,2013-03-07 10:52:00,
2013-03-07 05:03:00,26.0,22.0,-100.00,North,0,1.0,5.0,86,-99.99,,,-99.99,,2013-03-07 11:03:00,
2013-03-07 05:12:00,26.0,22.0,-100.00,NW,325,0.0,5.0,85,-99.99,,,-99.99,,2013-03-07 11:12:00,
2013-03-07 05:23:00,26.0,22.0,-100.00,NW,325,0.0,5.0,85,-99.99,,,-99.99,,2013-03-07 11:23:00,
2013-03-07 05:33:00,26.0,23.0,-100.00,WNW,285,1.0,2.0,86,-99.99,,,-99.99,,2013-03-07 11:33:00,
2013-03-07 05:43:00,26.0,23.0,-100.00,NW,310,1.0,2.0,87,-99.99,,,-99.99,,2013-03-07 11:43:00,
2013-03-07 05:53:00,26.0,23.0,-100.00,NW,310,1.0,2.0,87,-99.99,,,-99.99,,2013-03-07 11:53:00,
2013-03-07 06:03:00,27.0,23.0,-100.00,West,280,1.0,2.0,84,-99.99,,,-99.99,,2013-03-07 12:03:00,
2013-03-07 06:12:00,27.0,22.0,-100.00,West,270,1.0,4.0,80,-99.99,,,-99.99,,2013-03-07 12:12:00,
2013-03-07 06:23:00,27.0,22.0,-100.00,West,270,1.0,4.0,80,-99.99,,,-99.99,,2013-03-07 12:23:00,
2013-03-07 06:33:00,27.0,22.0,-100.00,SSE,165,1.0,4.0,79,-99.99,,,-99.99,,2013-03-07 12:33:00,
2013-03-07 06:42:00,27.0,22.0,-100.00,West,280,1.0,4.0,80,-99.99,,,-99.99,,2013-03-07 12:42:00,
2013-03-07 06:52:00,27.0,22.0,-100.00,West,280,1.0,4.0,80,-99.99,,,-99.99,,2013-03-07 12:52:00,
2013-03-07 07:02:00,26.0,21.0,-100.00,NW,325,0.0,5.0,81,-99.99,,,-99.99,,2013-03-07 13:02:00,
2013-03-07 07:12:00,26.0,21.0,-100.00,West,280,2.0,6.0,82,-99.99,,,-99.99,,2013-03-07 13:12:00,
2013-03-07 07:22:00,26.0,21.0,-100.00,West,280,2.0,6.0,82,-99.99,,,-99.99,,2013-03-07 13:22:00,
2013-03-07 07:32:00,25.0,21.0,-100.00,NW,320,0.0,3.0,84,-99.99,,,-99.99,,2013-03-07 13:32:00,
2013-03-07 07:42:00,25.0,21.0,-100.00,SE,145,2.0,4.0,84,-99.99,,,-99.99,,2013-03-07 13:42:00,
2013-03-07 07:52:00,25.0,21.0,-100.00,SE,145,2.0,4.0,84,-99.99,,,-99.99,,2013-03-07 13:52:00,
2013-03-07 08:02:00,28.0,22.0,-100.00,West,260,1.0,4.0,77,-99.99,,,-99.99,,2013-03-07 14:02:00,
2013-03-07 08:12:00,28.0,23.0,-100.00,NW,320,1.0,4.0,79,-99.99,,,-99.99,,2013-03-07 14:12:00,
2013-03-07 08:23:00,28.0,23.0,-100.00,NW,320,1.0,4.0,79,-99.99,,,-99.99,,2013-03-07 14:23:00,
2013-03-07 08:33:00,30.0,22.0,-100.00,WSW,250,2.0,4.0,73,-99.99,,,-99.99,,2013-03-07 14:33:00,
2013-03-07 08:42:00,30.0,22.0,-100.00,West,260,4.0,6.0,71,-99.99,,,-99.99,,2013-03-07 14:42:00,
2013-03-07 08:53:00,30.0,22.0,-100.00,West,260,4.0,6.0,71,-99.99,,,-99.99,,2013-03-07 14:53:00,
2013-03-07 09:03:00,32.0,23.0,-100.00,WNW,285,4.0,9.0,70,-99.99,,,-99.99,,2013-03-07 15:03:00,
2013-03-07 09:12:00,33.0,24.0,-100.00,West,275,8.0,10.0,68,-99.99,,,-99.99,,2013-03-07 15:12:00,
2013-03-07 09:23:00,33.0,24.0,-100.00,West,275,8.0,10.0,68,-99.99,,,-99.99,,2013-03-07 15:23:00,
2013-03-07 09:32:00,35.0,24.0,-100.00,West,280,8.0,13.0,64,-99.99,,,-99.99,,2013-03-07 15:32:00,
2013-03-07 09:42:00,36.0,25.0,-100.00,WNW,290,5.0,12.0,63,-99.99,,,-99.99,,2013-03-07 15:42:00,
2013-03-07 09:52:00,36.0,25.0,-100.00,WNW,290,5.0,12.0,63,-99.99,,,-99.99,,2013-03-07 15:52:00,
2013-03-07 10:02:00,39.0,26.0,-100.00,West,265,6.0,10.0,59,-99.99,,,-99.99,,2013-03-07 16:02:00,
2013-03-07 10:13:00,39.0,25.0,-100.00,WNW,285,6.0,10.0,57,-99.99,,,-99.99,,2013-03-07 16:13:00,
2013-03-07 10:23:00,39.0,25.0,-100.00,WNW,285,6.0,10.0,57,-99.99,,,-99.99,,2013-03-07 16:23:00,
2013-03-07 10:32:00,41.0,26.0,-100.00,West,280,6.0,11.0,55,-99.99,,,-99.99,,2013-03-07 16:32:00,
2013-03-07 10:43:00,43.0,27.0,-100.00,West,275,8.0,11.0,53,-99.99,,,-99.99,,2013-03-07 16:43:00,
2013-03-07 10:52:00,43.0,27.0,-100.00,West,275,8.0,11.0,53,-99.99,,,-99.99,,2013-03-07 16:52:00,
2013-03-07 11:02:00,45.0,27.0,-100.00,NW,320,2.0,9.0,50,-99.99,,,-99.99,,2013-03-07 17:02:00,
2013-03-07 11:12:00,45.0,27.0,-100.00,WNW,285,6.0,11.0,50,-99.99,,,-99.99,,2013-03-07 17:12:00,
2013-03-07 11:22:00,45.0,27.0,-100.00,WNW,285,6.0,11.0,50,-99.99,,,-99.99,,2013-03-07 17:22:00,
2013-03-07 11:33:00,47.0,27.0,-100.00,West,280,7.0,11.0,45,-99.99,,,-99.99,,2013-03-07 17:33:00,
2013-03-07 11:43:00,47.0,27.0,-100.00,West,270,7.0,13.0,46,-99.99,,,-99.99,,2013-03-07 17:43:00,
2013-03-07 11:53:00,47.0,27.0,-100.00,West,270,7.0,13.0,46,-99.99,,,-99.99,,2013-03-07 17:53:00,
2013-03-07 12:03:00,49.0,28.0,-100.00,West,265,8.0,12.0,44,-99.99,,,-99.99,,2013-03-07 18:03:00,
2013-03-07 12:12:00,49.0,27.0,-100.00,West,270,10.0,14.0,42,-99.99,,,-99.99,,2013-03-07 18:12:00,
2013-03-07 12:22:00,49.0,27.0,-100.00,West,270,10.0,14.0,42,-99.99,,,-99.99,,2013-03-07 18:22:00,
2013-03-07 12:32:00,50.0,27.0,-100.00,West,275,5.0,10.0,41,-99.99,,,-99.99,,2013-03-07 18:32:00,
2013-03-07 12:42:00,51.0,27.0,-100.00,West,280,6.0,11.0,40,-99.99,,,-99.99,,2013-03-07 18:42:00,
2013-03-07 12:52:00,51.0,27.0,-100.00,West,280,6.0,11.0,40,-99.99,,,-99.99,,2013-03-07 18:52:00,
2013-03-07 13:03:00,52.0,29.0,-100.00,WNW,295,5.0,11.0,40,-99.99,,,-99.99,,2013-03-07 19:03:00,
2013-03-07 13:12:00,53.0,28.0,-100.00,WNW,300,5.0,13.0,38,-99.99,,,-99.99,,2013-03-07 19:12:00,
2013-03-07 13:23:00,53.0,28.0,-100.00,WNW,300,5.0,13.0,38,-99.99,,,-99.99,,2013-03-07 19:23:00,
2013-03-07 13:35:00,53.0,26.0,-100.00,WNW,295,4.0,10.0,35,-99.99,,,-99.99,,2013-03-07 19:35:00,
2013-03-07 13:43:00,54.0,26.0,-100.00,WNW,290,8.0,10.0,33,-99.99,,,-99.99,,2013-03-07 19:43:00,
2013-03-07 13:52:00,54.0,25.0,-100.00,WNW,285,5.0,16.0,32,-99.99,,,-99.99,,2013-03-07 19:52:00,
2013-03-07 14:02:00,54.0,25.0,-100.00,WNW,285,5.0,16.0,32,-99.99,,,-99.99,,2013-03-07 20:02:00,
2013-03-07 14:13:00,55.0,25.0,-100.00,WNW,290,7.0,12.0,31,-99.99,,,-99.99,,2013-03-07 20:13:00,
2013-03-07 14:22:00,55.0,25.0,-100.00,WNW,290,7.0,12.0,31,-99.99,,,-99.99,,2013-03-07 20:22:00,
2013-03-07 14:33:00,56.0,24.0,-100.00,WNW,290,8.0,15.0,29,-99.99,,,-99.99,,2013-03-07 20:33:00,
2013-03-07 14:42:00,56.0,25.0,-100.00,WNW,295,7.0,12.0,30,-99.99,,,-99.99,,2013-03-07 20:42:00,
2013-03-07 14:53:00,56.0,25.0,-100.00,WNW,295,7.0,12.0,30,-99.99,,,-99.99,,2013-03-07 20:53:00,
2013-03-07 15:02:00,57.0,24.0,-100.00,WNW,295,7.0,11.0,28,-99.99,,,-99.99,,2013-03-07 21:02:00,
2013-03-07 15:12:00,58.0,25.0,-100.00,WNW,295,6.0,12.0,28,-99.99,,,-99.99,,2013-03-07 21:12:00,
2013-03-07 15:22:00,58.0,25.0,-100.00,WNW,295,6.0,12.0,28,-99.99,,,-99.99,,2013-03-07 21:22:00,
2013-03-07 15:32:00,58.0,24.0,-100.00,WNW,295,7.0,12.0,27,-99.99,,,-99.99,,2013-03-07 21:32:00,
2013-03-07 15:42:00,58.0,24.0,-100.00,WNW,295,8.0,14.0,27,-99.99,,,-99.99,,2013-03-07 21:42:00,
2013-03-07 15:52:00,58.0,24.0,-100.00,WNW,295,8.0,14.0,27,-99.99,,,-99.99,,2013-03-07 21:52:00,
2013-03-07 16:02:00,58.0,23.0,-100.00,WNW,290,8.0,12.0,26,-99.99,,,-99.99,,2013-03-07 22:02:00,
2013-03-07 16:12:00,58.0,23.0,-100.00,WNW,295,7.0,12.0,26,-99.99,,,-99.99,,2013-03-07 22:12:00,
2013-03-07 16:22:00,58.0,23.0,-100.00,WNW,295,7.0,12.0,26,-99.99,,,-99.99,,2013-03-07 22:22:00,
2013-03-07 16:32:00,59.0,25.0,-100.00,WNW,285,5.0,10.0,27,-99.99,,,-99.99,,2013-03-07 22:32:00,
2013-03-07 16:42:00,58.0,24.0,-100.00,WNW,290,7.0,12.0,27,-99.99,,,-99.99,,2013-03-07 22:42:00,
2013-03-07 16:53:00,58.0,24.0,-100.00,West,280,8.0,13.0,27,-99.99,,,-99.99,,2013-03-07 22:53:00,
2013-03-07 17:00:00,57.0,27.0,-100.00,West,265,7.0,14.0,31,-99.99,,,-99.99,,2013-03-07 23:00:00,
2013-03-07 17:03:00,58.0,24.0,-100.00,West,280,8.0,13.0,27,-99.99,,,-99.99,,2013-03-07 23:03:00,
2013-03-07 17:13:00,58.0,24.0,-100.00,WNW,285,5.0,10.0,26,-99.99,,,-99.99,,2013-03-07 23:13:00,
2013-03-07 17:22:00,58.0,24.0,-100.00,WNW,285,5.0,10.0,26,-99.99,,,-99.99,,2013-03-07 23:22:00,
2013-03-07 17:33:00,57.0,26.0,-100.00,WNW,285,10.0,15.0,30,-99.99,,,-99.99,,2013-03-07 23:33:00,
2013-03-07 17:43:00,57.0,27.0,-100.00,West,265,7.0,14.0,31,-99.99,,,-99.99,,2013-03-07 23:43:00,
2013-03-07 18:13:00,56.0,27.0,-100.00,West,275,8.0,13.0,33,-99.99,,,-99.99,,2013-03-08 00:13:00,
2013-03-07 18:23:00,56.0,27.0,-100.00,West,275,8.0,13.0,33,-99.99,,,-99.99,,2013-03-08 00:23:00,
2013-03-07 18:34:00,55.0,27.0,-100.00,West,260,6.0,13.0,34,-99.99,,,-99.99,,2013-03-08 00:34:00,
2013-03-07 18:43:00,54.0,27.0,-100.00,West,275,5.0,10.0,35,-99.99,,,-99.99,,2013-03-08 00:43:00,
2013-03-07 18:52:00,54.0,27.0,-100.00,West,275,5.0,10.0,35,-99.99,,,-99.99,,2013-03-08 00:52:00,
2013-03-07 19:02:00,53.0,27.0,-100.00,West,270,6.0,10.0,36,-99.99,,,-99.99,,2013-03-08 01:02:00,
2013-03-07 19:11:00,52.0,27.0,-100.00,WSW,255,5.0,9.0,37,-99.99,,,-99.99,,2013-03-08 01:11:00,
2013-03-07 19:21:00,52.0,27.0,-100.00,WSW,255,5.0,9.0,37,-99.99,,,-99.99,,2013-03-08 01:21:00,
2013-03-07 19:33:00,51.0,27.0,-100.00,West,265,5.0,8.0,39,-99.99,,,-99.99,,2013-03-08 01:33:00,
2013-03-07 19:42:00,51.0,27.0,-100.00,West,275,4.0,8.0,39,-99.99,,,-99.99,,2013-03-08 01:42:00,
2013-03-07 19:52:00,51.0,27.0,-100.00,West,275,4.0,8.0,39,-99.99,,,-99.99,,2013-03-08 01:52:00,
2013-03-07 20:01:00,50.0,26.0,-100.00,West,270,4.0,7.0,40,-99.99,,,-99.99,,2013-03-08 02:01:00,
2013-03-07 20:11:00,49.0,26.0,-100.00,West,275,4.0,7.0,41,-99.99,,,-99.99,,2013-03-08 02:11:00,
2013-03-07 20:22:00,49.0,26.0,-100.00,West,275,4.0,7.0,41,-99.99,,,-99.99,,2013-03-08 02:22:00,
2013-03-07 20:32:00,48.0,26.0,-100.00,West,265,3.0,5.0,42,-99.99,,,-99.99,,2013-03-08 02:32:00,
2013-03-07 20:42:00,46.0,27.0,-100.00,West,265,2.0,5.0,47,-99.99,,,-99.99,,2013-03-08 02:42:00,
2013-03-07 20:52:00,46.0,27.0,-100.00,West,265,2.0,5.0,47,-99.99,,,-99.99,,2013-03-08 02:52:00,
2013-03-07 21:02:00,45.0,28.0,-100.00,West,270,2.0,4.0,51,-99.99,,,-99.99,,2013-03-08 03:02:00,
2013-03-07 21:12:00,45.0,28.0,-100.00,West,265,2.0,4.0,52,-99.99,,,-99.99,,2013-03-08 03:12:00,
2013-03-07 21:22:00,45.0,28.0,-100.00,West,265,2.0,4.0,52,-99.99,,,-99.99,,2013-03-08 03:22:00,
2013-03-07 21:32:00,43.0,27.0,-100.00,West,260,2.0,4.0,54,-99.99,,,-99.99,,2013-03-08 03:32:00,
2013-03-07 21:42:00,44.0,27.0,-100.00,WSW,250,2.0,6.0,52,-99.99,,,-99.99,,2013-03-08 03:42:00,
2013-03-07 21:52:00,44.0,27.0,-100.00,WSW,250,2.0,6.0,52,-99.99,,,-99.99,,2013-03-08 03:52:00,
2013-03-07 22:01:00,41.0,29.0,-100.00,West,270,5.0,8.0,61,-99.99,,,-99.99,,2013-03-08 04:01:00,
2013-03-07 22:11:00,43.0,28.0,-100.00,West,275,4.0,8.0,55,-99.99,,,-99.99,,2013-03-08 04:11:00,
2013-03-07 22:22:00,43.0,28.0,-100.00,West,275,4.0,8.0,55,-99.99,,,-99.99,,2013-03-08 04:22:00,
2013-03-07 22:32:00,43.0,28.0,-100.00,West,280,5.0,8.0,55,-99.99,,,-99.99,,2013-03-08 04:32:00,
2013-03-07 22:42:00,43.0,29.0,-100.00,West,280,5.0,9.0,56,-99.99,,,-99.99,,2013-03-08 04:42:00,
2013-03-07 22:52:00,43.0,29.0,-100.00,West,280,5.0,9.0,56,-99.99,,,-99.99,,2013-03-08 04:52:00,
2013-03-07 23:02:00,44.0,28.0,-100.00,West,275,5.0,10.0,55,-99.99,,,-99.99,,2013-03-08 05:02:00,
2013-03-07 23:12:00,44.0,29.0,-100.00,WNW,285,7.0,11.0,56,-99.99,,,-99.99,,2013-03-08 05:12:00,
2013-03-07 23:22:00,44.0,29.0,-100.00,WNW,285,7.0,11.0,56,-99.99,,,-99.99,,2013-03-08 05:22:00,
2013-03-07 23:32:00,43.0,30.0,-100.00,West,280,6.0,12.0,58,-99.99,,,-99.99,,2013-03-08 05:32:00,
2013-03-07 23:42:00,43.0,30.0,-100.00,West,275,7.0,13.0,59,-99.99,,,-99.99,,2013-03-08 05:42:00,
2013-03-07 23:52:00,43.0,30.0,-100.00,West,275,7.0,13.0,59,-99.99,,,-99.99,,2013-03-08 05:52:00,